Tracking 19832 objects as of 24-Aug-2019
HD Live streaming from Space Station
objects crossing your sky now

COSMOS 482 DESCENT CRAFT

Track COSMOS 482 DESCENT CRAFT now!
10-day predictions
COSMOS 482 DESCENT CRAFT is classified as:


NORAD ID: 6073
Int'l Code: 1972-023E
Perigee: 208.3 km
Apogee: 2,359.0 km
Inclination: 52.1 °
Period: 111.1 minutes
Semi major axis: 7654 km
RCS: 0.7153 m2 (medium)
Launch date: March 31, 1972
Source: Commonwealth of Independent States (former USSR) (CIS)
Launch site: TYURATAM MISSILE AND SPACE COMPLEX (TTMTR)
aabbcc
Your satellite tracking list
Your tracking list is empty




NASA's NSSDC Master Catalog

Two Line Element Set (TLE):
1  6073U 72023E   19235.88069138 +.00011658 +60327-5 +55000-4 0  9991
2  6073 052.0515 354.5312 1404849 036.2790 332.5565 12.96322924463301
Source of the keplerian elements: AFSPC